Branson, MO

5:18 PM CST on December 17, 2017 (GMT -0600)
Branson

Weather History for KBBG - May, 2012

Change the Weather History Date:

Sunday, May 6, 2012

  Actual Average (KHRO) Record (KHRO)
Temperature  
Mean Temperature 75 °F -  
Max Temperature 84 °F 75 °F 92 °F (1940)
Min Temperature 66 °F 53 °F 33 °F (1911)
Cooling Degree Days 10    
Growing Degree Days 25 (Base 50)    
Moisture  
Dew Point 65 °F    
Average Humidity 85    
Maximum Humidity 100    
Minimum Humidity 55    
Precipitation  
Precipitation 0.00 in - - ()
Sea Level Pressure  
Sea Level Pressure 29.90 in    
Wind  
Wind Speed 5 mph (SE)    
Max Wind Speed 14 mph    
Max Gust Speed 25 mph    
Visibility 8 miles    
Events Rain , Thunderstorm    
Averages and records for this station are not official NWS values.
T = Trace of Precipitation, MM = Missing Value Source: NWS Daily Summary

Daily Weather History Graph

Daily Weather History Graph

Search for Another Location

Airport or City:

Trip Planner

Search our weather history database for the weather conditions in past years. The results will help you decide how hot, cold, wet, or windy it might be!

Date:

Astronomy

May. 06, 2012 Rise Set
Actual Time 6:13 AM CDT 8:05 PM CDT
Civil Twilight 5:45 AM CDT 8:33 PM CDT
Nautical Twilight 5:11 AM CDT 9:08 PM CDT
Astronomical Twilight 4:35 AM CDT 9:44 PM CDT
Moon 9:09 PM CDT (5/6) 6:25 AM CDT (5/6)
Length of Visible Light 14h 48m
Length of Day
13h 52m
Full, 100% of the Moon is Illuminated
May 6
Full
May 12
Last Quarter
May 20
New
May 28
First Quarter
Jun 4
Full

Hourly Weather History & Observations

Time (CDT) Temp. Heat Index Dew Point Humidity Pressure Visibility Wind Dir Wind Speed Gust Speed Precip Events Conditions
12:15 AM 71.6 °F - 66.2 °F 83% 29.91 in 10.0 mi SE 4.6 mph - N/A   Clear
12:35 AM 69.8 °F - 66.2 °F 88% 29.91 in 10.0 mi SE 4.6 mph - N/A   Clear
12:55 AM 69.8 °F - 66.2 °F 88% 29.91 in 10.0 mi SE 5.8 mph - N/A   Clear
1:15 AM 69.8 °F - 66.2 °F 88% 29.91 in 10.0 mi ESE 4.6 mph - N/A   Clear
1:35 AM 68.0 °F - 66.2 °F 94% 29.90 in 9.0 mi ESE 6.9 mph - N/A   Clear
1:55 AM 69.8 °F - 66.2 °F 88% 29.90 in 9.0 mi ESE 5.8 mph - N/A   Clear
2:15 AM 68.0 °F - 66.2 °F 94% 29.90 in 9.0 mi ESE 5.8 mph - N/A   Clear
2:35 AM 68.0 °F - 66.2 °F 94% 29.91 in 8.0 mi ESE 5.8 mph - N/A   Clear
2:55 AM 68.0 °F - 66.2 °F 94% 29.91 in 7.0 mi ESE 3.5 mph - N/A   Clear
3:15 AM 68.0 °F - 66.2 °F 94% 29.90 in 7.0 mi ESE 4.6 mph - N/A   Clear
3:35 AM 68.0 °F - 66.2 °F 94% 29.90 in 7.0 mi ESE 4.6 mph - N/A   Clear
3:55 AM 68.0 °F - 66.2 °F 94% 29.89 in 8.0 mi ESE 5.8 mph - N/A   Clear
4:15 AM 68.0 °F - 66.2 °F 94% 29.89 in 7.0 mi ESE 4.6 mph - N/A   Clear
4:35 AM 66.2 °F - 66.2 °F 100% 29.89 in 7.0 mi SE 3.5 mph - N/A   Clear
4:55 AM 66.2 °F - 66.2 °F 100% 29.89 in 5.0 mi SE 3.5 mph - N/A   Clear
5:15 AM 66.2 °F - 66.2 °F 100% 29.89 in 6.0 mi ESE 5.8 mph - N/A   Clear
5:35 AM 66.2 °F - 66.2 °F 100% 29.89 in 5.0 mi ESE 3.5 mph - N/A   Clear
5:55 AM 66.2 °F - 66.2 °F 100% 29.90 in 5.0 mi SE 4.6 mph - N/A   Clear
6:15 AM 66.2 °F - 66.2 °F 100% 29.90 in 4.0 mi SE 3.5 mph - N/A   Clear
6:35 AM 66.2 °F - 66.2 °F 100% 29.91 in 3.0 mi Calm Calm - N/A   Clear
6:50 AM 66.2 °F - 66.2 °F 100% 29.92 in 4.0 mi SSE 5.8 mph - N/A   Clear
7:45 AM 68.0 °F - 66.2 °F 94% 29.93 in 6.0 mi SSE 8.1 mph - N/A   Clear
8:48 AM 73.4 °F - 68.0 °F 83% 29.93 in 10.0 mi SE 9.2 mph - N/A   Clear
9:45 AM 75.2 °F - 68.0 °F 78% 29.93 in 10.0 mi SE 11.5 mph - N/A   Clear
10:45 AM 78.8 °F - 68.0 °F 69% 29.93 in 10.0 mi SSE 6.9 mph - N/A   Partly Cloudy
11:51 AM 82.4 °F 86.3 °F 69.8 °F 66% 29.91 in 10.0 mi SE 13.8 mph 19.6 mph N/A   Partly Cloudy
12:47 PM 84.2 °F 87.3 °F 68.0 °F 58% 29.90 in 10.0 mi SSE 13.8 mph 18.4 mph N/A   Partly Cloudy
1:46 PM 84.2 °F 86.6 °F 66.2 °F 55% 29.91 in 10.0 mi SSE 10.4 mph - N/A   Scattered Clouds
2:47 PM 84.2 °F 86.6 °F 66.2 °F 55% 29.90 in 10.0 mi SSE 13.8 mph - N/A   Scattered Clouds
3:45 PM 82.4 °F 85.4 °F 68.0 °F 62% 29.92 in 10.0 mi WNW 13.8 mph 25.3 mph N/A Thunderstorm Thunderstorm
4:45 PM 66.2 °F - 60.8 °F 83% 29.93 in 4.0 mi SSW 10.4 mph 21.9 mph N/A Rain , Thunderstorm Light Thunderstorms and Rain
5:46 PM 69.8 °F - 60.8 °F 73% 29.89 in 10.0 mi ESE 5.8 mph - N/A   Mostly Cloudy
6:48 PM 73.4 °F - 64.4 °F 73% 29.85 in 10.0 mi South 8.1 mph - N/A   Mostly Cloudy
7:48 PM 73.4 °F - 62.6 °F 69% 29.82 in 10.0 mi South 12.7 mph - N/A   Mostly Cloudy
8:46 PM 69.8 °F - 64.4 °F 83% 29.86 in 10.0 mi Calm Calm - N/A   Scattered Clouds
9:15 PM 68.0 °F - 64.4 °F 88% 29.85 in 10.0 mi Calm Calm - N/A   Clear
9:35 PM 69.8 °F - 60.8 °F 73% 29.87 in 10.0 mi Calm Calm - N/A   Clear
9:55 PM 68.0 °F - 62.6 °F 83% 29.88 in 10.0 mi Calm Calm - N/A   Clear
10:15 PM 68.0 °F - 62.6 °F 83% 29.88 in 10.0 mi Calm Calm - N/A   Clear
10:35 PM 68.0 °F - 62.6 °F 83% 29.89 in 10.0 mi Calm Calm - N/A   Clear
10:55 PM 68.0 °F - 62.6 °F 83% 29.89 in 10.0 mi Calm Calm - N/A   Clear
11:15 PM 68.0 °F - 62.6 °F 83% 29.89 in 10.0 mi Calm Calm - N/A   Clear
11:35 PM 68.0 °F - 62.6 °F 83% 29.90 in 10.0 mi Calm Calm - N/A   Clear
11:55 PM 66.2 °F - 64.4 °F 94% 29.90 in 10.0 mi Calm Calm - N/A   Clear